, CO

(GMT )
Cottonwood Pass

Weather History for K7BM - June, 2013

Change the Weather History Date:

Friday, June 21, 2013

  Actual Average Record
Temperature  
Mean Temperature 65 °F -  
Max Temperature 75 °F - - ()
Min Temperature 55 °F - - ()
Growing Degree Days 15 (Base 50)    
Moisture  
Dew Point 2 °F    
Average Humidity 9    
Maximum Humidity 18    
Minimum Humidity 4    
Precipitation  
Precipitation 0.00 in - - ()
Sea Level Pressure  
Sea Level Pressure 30.28 in    
Wind  
Wind Speed 8 mph (WSW)    
Max Wind Speed 22 mph    
Max Gust Speed 37 mph    
Visibility 10 miles    
Events      
T = Trace of Precipitation, MM = Missing Value Source: NWS Daily Summary

Daily Weather History Graph

Daily Weather History Graph

Search for Another Location

Airport or City:

Trip Planner

Search our weather history database for the weather conditions in past years. The results will help you decide how hot, cold, wet, or windy it might be!

Date:

Astronomy

Jun. 21, 2013 Rise Set
Actual Time 5:40 AM MDT 8:33 PM MDT
Civil Twilight 5:08 AM MDT 9:05 PM MDT
Nautical Twilight 4:27 AM MDT 9:45 PM MDT
Astronomical Twilight 3:41 AM MDT 10:32 PM MDT
Moon 6:47 PM MDT (6/21) 3:57 AM MDT (6/21)
Length of Visible Light 15h 57m
Length of Day
14h 53m
Waxing Gibbous, 95% of the Moon is Illuminated
Jun 21
Waxing Gibbous
Jun 23
Full
Jun 29
Last Quarter
Jul 8
New
Jul 15
First Quarter

Hourly Weather History & Observations

Time (MDT) Temp. Dew Point Humidity Pressure Visibility Wind Dir Wind Speed Gust Speed Precip Events Conditions
12:15 AM 62.6 °F -0.4 °F 8% 30.30 in 10.0 mi WSW 6.9 mph - N/A   Clear
12:35 AM 62.6 °F 1.4 °F 9% 30.29 in 10.0 mi WSW 6.9 mph - N/A   Clear
12:55 AM 62.6 °F -0.4 °F 8% 30.29 in 10.0 mi WSW 8.1 mph - N/A   Clear
1:15 AM 62.6 °F -0.4 °F 8% 30.29 in 10.0 mi West 8.1 mph - N/A   Clear
1:35 AM 62.6 °F -0.4 °F 8% 30.28 in 10.0 mi West 8.1 mph - N/A   Clear
1:55 AM 60.8 °F -0.4 °F 8% 30.28 in 10.0 mi WSW 6.9 mph - N/A   Clear
2:15 AM 60.8 °F -0.4 °F 8% 30.28 in 10.0 mi WSW 8.1 mph - N/A   Clear
2:35 AM 60.8 °F -0.4 °F 8% 30.27 in 10.0 mi WSW 9.2 mph - N/A   Clear
2:55 AM 60.8 °F -2.2 °F 8% 30.27 in 10.0 mi WSW 9.2 mph - N/A   Clear
3:15 AM 60.8 °F -2.2 °F 8% 30.28 in 10.0 mi WSW 9.2 mph - N/A   Clear
3:35 AM 60.8 °F -4.0 °F 7% 30.28 in 10.0 mi WSW 6.9 mph - N/A   Clear
3:55 AM 60.8 °F -2.2 °F 8% 30.27 in 10.0 mi SW 6.9 mph - N/A   Clear
4:14 AM 59.0 °F -0.4 °F 9% 30.27 in 10.0 mi SSW 6.9 mph - N/A   Clear
4:34 AM 59.0 °F 1.4 °F 10% 30.28 in 10.0 mi SSE 6.9 mph - N/A   Clear
4:55 AM 59.0 °F 5.0 °F 12% 30.29 in 10.0 mi SE 5.8 mph - N/A   Clear
5:15 AM 57.2 °F 5.0 °F 12% 30.29 in 10.0 mi Calm Calm - N/A   Clear
5:35 AM 59.0 °F -0.4 °F 9% 30.29 in 10.0 mi Calm Calm - N/A   Clear
5:55 AM 57.2 °F 5.0 °F 12% 30.29 in 10.0 mi Calm Calm - N/A   Clear
6:14 AM 55.4 °F 8.6 °F 15% 30.29 in 10.0 mi ESE 3.5 mph - N/A   Clear
6:35 AM 57.2 °F 3.2 °F 11% 30.30 in 10.0 mi Calm Calm - N/A   Clear
6:55 AM 57.2 °F 10.4 °F 16% 30.30 in 10.0 mi Calm Calm - N/A   Clear
7:15 AM 59.0 °F 8.6 °F 14% 30.30 in 10.0 mi Calm Calm - N/A   Clear
7:35 AM 59.0 °F 14.0 °F 17% 30.30 in 10.0 mi Calm Calm - N/A   Clear
7:55 AM 60.8 °F 10.4 °F 14% 30.31 in 10.0 mi Calm Calm - N/A   Clear
8:15 AM 60.8 °F 12.2 °F 15% 30.31 in 10.0 mi Calm Calm - N/A   Clear
8:35 AM 60.8 °F 10.4 °F 14% 30.31 in 10.0 mi North 3.5 mph - N/A   Clear
8:55 AM 62.6 °F 17.6 °F 18% 30.31 in 10.0 mi Calm Calm - N/A   Clear
9:15 AM 62.6 °F 14.0 °F 15% 30.31 in 10.0 mi ESE 6.9 mph - N/A   Clear
9:35 AM 62.6 °F 14.0 °F 15% 30.31 in 10.0 mi East 5.8 mph - N/A   Clear
9:55 AM 64.4 °F 14.0 °F 14% 30.31 in 10.0 mi ESE 3.5 mph - N/A   Clear
10:15 AM 64.4 °F 12.2 °F 13% 30.31 in 10.0 mi ESE 8.1 mph - N/A   Clear
10:35 AM 68.0 °F 8.6 °F 10% 30.31 in 10.0 mi Calm Calm - N/A   Clear
10:55 AM 68.0 °F -4.0 °F 6% 30.30 in 10.0 mi SW 11.5 mph 21.9 mph N/A   Clear
11:15 AM 68.0 °F -4.0 °F 6% 30.30 in 10.0 mi West 11.5 mph 25.3 mph N/A   Clear
11:35 AM 68.0 °F -4.0 °F 6% 30.30 in 10.0 mi West 16.1 mph 29.9 mph N/A   Clear
11:55 AM 68.0 °F -4.0 °F 6% 30.29 in 10.0 mi SW 16.1 mph 28.8 mph N/A   Clear
12:15 PM 69.8 °F -5.8 °F 5% 30.29 in 10.0 mi WSW 20.7 mph 29.9 mph N/A   Clear
12:35 PM 69.8 °F -5.8 °F 5% 30.29 in 10.0 mi WSW 6.9 mph 27.6 mph N/A   Clear
12:55 PM 69.8 °F -9.4 °F 4% 30.29 in 10.0 mi West 15.0 mph 24.2 mph N/A   Clear
1:14 PM 71.6 °F -11.2 °F 4% 30.28 in 10.0 mi West 17.3 mph 29.9 mph N/A   Clear
1:35 PM 71.6 °F -7.6 °F 4% 30.28 in 10.0 mi WSW 13.8 mph 21.9 mph N/A   Clear
1:55 PM 73.4 °F -5.8 °F 4% 30.28 in 10.0 mi WSW 12.7 mph 27.6 mph N/A   Clear
2:15 PM 73.4 °F -5.8 °F 4% 30.27 in 10.0 mi West 8.1 mph 18.4 mph N/A   Clear
2:35 PM 73.4 °F -4.0 °F 5% 30.26 in 10.0 mi South 9.2 mph - N/A   Clear
2:55 PM 71.6 °F -7.6 °F 4% 30.27 in 10.0 mi WSW 21.9 mph 27.6 mph N/A   Clear
3:15 PM 71.6 °F -13.0 °F 4% 30.26 in 10.0 mi WNW 11.5 mph 26.5 mph N/A   Clear
3:35 PM 75.2 °F -13.0 °F 4% 30.26 in 10.0 mi West 4.6 mph - N/A   Clear
3:55 PM 73.4 °F -13.0 °F 4% 30.25 in 10.0 mi West 16.1 mph 24.2 mph N/A   Clear
4:15 PM 71.6 °F -5.8 °F 5% 30.25 in 10.0 mi West 8.1 mph 23.0 mph N/A   Clear
4:35 PM 71.6 °F -4.0 °F 5% 30.25 in 10.0 mi West 4.6 mph - N/A   Clear
4:55 PM 71.6 °F -4.0 °F 5% 30.24 in 10.0 mi WSW 12.7 mph 24.2 mph N/A   Clear
5:15 PM 73.4 °F -0.4 °F 5% 30.24 in 10.0 mi WSW 15.0 mph 21.9 mph N/A   Clear
5:35 PM 71.6 °F 1.4 °F 6% 30.24 in 10.0 mi NW 3.5 mph 20.7 mph N/A   Clear
5:55 PM 71.6 °F -7.6 °F 4% 30.24 in 10.0 mi WNW 5.8 mph 36.8 mph N/A   Clear
6:14 PM 73.4 °F -0.4 °F 5% 30.24 in 10.0 mi WSW 11.5 mph 29.9 mph N/A   Clear
6:34 PM 69.8 °F 1.4 °F 7% 30.25 in 10.0 mi West 15.0 mph 27.6 mph N/A   Scattered Clouds
6:55 PM 68.0 °F 5.0 °F 8% 30.25 in 10.0 mi West 11.5 mph 27.6 mph N/A   Scattered Clouds
7:15 PM 64.4 °F 8.6 °F 11% 30.27 in 10.0 mi WNW 13.8 mph 31.1 mph N/A   Clear
7:35 PM 66.2 °F 8.6 °F 11% 30.26 in 10.0 mi West 15.0 mph 20.7 mph N/A   Clear
7:54 PM 68.0 °F 8.6 °F 10% 30.26 in 10.0 mi West 13.8 mph 24.2 mph N/A   Clear
8:15 PM 64.4 °F 10.4 °F 12% 30.27 in 10.0 mi West 12.7 mph 18.4 mph N/A   Clear
8:35 PM 64.4 °F 10.4 °F 12% 30.27 in 10.0 mi West 13.8 mph 21.9 mph N/A   Clear
8:55 PM 64.4 °F 8.6 °F 11% 30.27 in 10.0 mi West 12.7 mph 19.6 mph N/A   Clear
9:15 PM 64.4 °F 8.6 °F 11% 30.27 in 10.0 mi West 12.7 mph 24.2 mph N/A   Clear
9:35 PM 64.4 °F 8.6 °F 11% 30.27 in 10.0 mi West 17.3 mph 28.8 mph N/A   Clear
9:55 PM 64.4 °F 8.6 °F 11% 30.27 in 10.0 mi West 19.6 mph 27.6 mph N/A   Clear
10:15 PM 64.4 °F 8.6 °F 11% 30.28 in 10.0 mi West 15.0 mph 25.3 mph N/A   Clear
10:35 PM 62.6 °F 8.6 °F 12% 30.29 in 10.0 mi West 12.7 mph - N/A   Clear
10:55 PM 62.6 °F 10.4 °F 13% 30.29 in 10.0 mi West 8.1 mph - N/A   Clear
11:15 PM 59.0 °F 12.2 °F 16% 30.29 in 10.0 mi WNW 3.5 mph - N/A   Clear
11:35 PM 60.8 °F 12.2 °F 15% 30.29 in 10.0 mi West 5.8 mph - N/A   Clear
11:55 PM 60.8 °F 8.6 °F 13% 30.29 in 10.0 mi WSW 9.2 mph - N/A   Clear